Location: Northam
(31.6525°S, 116.6655°E)
Time: 10:36:27
(UTC+08:00)

NOAA 15 - Visible Passes

Search period start: 26 July 2021 00:00
Search period end: 05 August 2021 00:00
Orbit: 797 x 812 km, 98.7° (Epoch: 25 July)

Date Brightness Start Highest point End Pass type
(mag) Time Alt. Az. Time Alt. Az. Time Alt. Az.
26 Jul 6.9 06:12:57 10° ENE 06:16:58 23° ESE 06:21:03 10° SSE visible
26 Jul 6.4 20:19:49 24° NNW 20:19:49 24° NNW 20:21:50 10° NNW visible
27 Jul 7.4 05:49:51 10° E 05:52:06 13° ESE 05:54:22 10° SE visible
27 Jul 5.9 19:54:17 29° N 19:54:17 29° N 19:56:47 10° N visible
28 Jul 5.9 19:28:45 25° NNE 19:28:45 25° NNE 19:31:14 10° N visible
29 Jul 6.1 06:36:09 10° NE 06:41:00 39° ESE 06:45:55 10° S visible
29 Jul 6.2 19:03:13 17° NE 19:03:13 17° NE 19:05:04 10° NNE visible
29 Jul 7.0 20:44:14 17° NW 20:44:14 17° NW 20:45:29 10° NW visible
30 Jul 7.0 06:12:03 10° ENE 06:16:02 22° ESE 06:20:03 10° SSE visible
30 Jul 6.3 20:18:42 25° NNW 20:18:42 25° NNW 20:20:54 10° NNW visible
31 Jul 7.4 05:49:01 10° E 05:51:09 12° ESE 05:53:18 10° SE visible
31 Jul 5.8 19:53:09 31° N 19:53:09 31° N 19:55:49 10° N visible
01 Aug 5.8 19:27:37 26° NNE 19:27:37 26° NNE 19:30:15 10° NNE visible
02 Aug 6.2 06:35:13 10° NE 06:40:03 38° ESE 06:44:56 10° S visible
02 Aug 6.2 19:02:04 18° NE 19:02:04 18° NE 19:04:03 10° NE visible
02 Aug 6.9 20:43:06 18° NW 20:43:06 18° NW 20:44:34 10° NW visible
03 Aug 7.1 06:11:08 10° ENE 06:15:04 22° ESE 06:19:04 10° SSE visible
03 Aug 6.2 20:17:33 27° NNW 20:17:33 27° NNW 20:19:57 10° NNW visible
04 Aug 7.5 05:48:11 10° E 05:50:12 12° ESE 05:52:15 10° SE visible
04 Aug 5.7 19:52:01 33° N 19:52:01 33° N 19:54:51 10° N visible
